Location: Jackson Park
(37.2862°N, 79.9123°W)
Time: 19:48:28
(UTC+00:00)

Vanguard 2 Rocket - Pass Details

Date: 12 May 2026
Orbit: 553 x 3286 km, 32.9° (Epoch: 6 June)

Event Time Altitude Azimuth Distance (km) Brightness Sun altitude
Rises 20:50:32 0° 277° (W) 6,794 12.2 39.7°
Reaches altitude 10° 20:54:46 10° 275° (W) 5,976 12.3 38.8°
Maximum altitude 21:14:24 68° 198° (SSW) 3,383 10.5 34.9°
Drops below altitude 10° 21:31:23 10° 120° (ESE) 5,273 10.4 31.6°
Sets 21:34:52 0° 118° (ESE) 5,994 10.6 30.9°
